Location: Big Meadows
(38.5260°N, 78.4400°W)
Time: 07:29:24
(UTC-04:00)

Amateur Radio Satellites - All Passes

Search period start: 31 July 2014 06:59
Search period end: 01 August 2014 06:59
Location: Big Meadows, 38.5260°N, 78.4400°W

Satellite Date Start Highest point End Downlink Frequencies (MHz)
Time Altitude Azimuth
ISS 31 Jul 06:59:16 07:01:55 22° 229° (SW) 07:04:33 145.800 FM
Uosat F 31 Jul 07:06:13 07:08:43 14° 298° (WNW) 07:11:14 435.120 FM
KITSAT 1 31 Jul 07:53:44 08:00:53 34° 313° (NW) 08:08:05 435.175 FM
Hamsat 31 Jul 07:56:21 08:00:13 33° 288° (WNW) 08:04:07 145.90 MHz
STRAND 1 31 Jul 07:56:33 08:01:13 35° 262° (W) 08:05:55 ?
MaSat-1 31 Jul 08:11:20 08:14:47 18° 259° (W) 08:18:05 437.345 MHz
SO-67 31 Jul 08:21:25 08:24:54 76° 102° (ESE) 08:28:21 435.3500 MHz FM
AO-7 31 Jul 08:27:25 08:30:21 12° 314° (NW) 08:33:17 29.400 - 29.500 MHz
Saudisat 1A 31 Jul 08:31:06 08:34:51 26° 310° (NW) 08:38:36 436.775 MHz
Sapphire 31 Jul 08:33:30 08:36:38 15° 44° (NE) 08:39:45 437.095 MHz 1200 baud AX-25 AFSK
HO-68 31 Jul 08:39:37 08:40:30 10° 88° (E) 08:41:23 435.675 MHz FM
JAS-2 31 Jul 08:43:22 08:48:05 26° 296° (WNW) 08:52:27 435.800 - 435.900 CW/SSB, 435.910 FM
PCSat 31 Jul 09:05:42 09:10:20 28° 52° (NE) 09:14:56 145.825 MHz
KITSAT 1 31 Jul 09:58:26 09:59:20 10° 340° (NNW) 10:00:14 435.175 FM
Sapphire 31 Jul 10:15:20 10:20:47 87° 243° (WSW) 10:26:12 437.095 MHz 1200 baud AX-25 AFSK
UKube-1 31 Jul 10:21:44 10:26:00 54° 101° (E) 10:30:14 145.840 MHz, 145.915 MHz
HO-68 31 Jul 10:22:05 10:29:15 74° 104° (ESE) 10:36:22 435.675 MHz FM
PCSat 31 Jul 10:48:47 10:53:51 41° 249° (WSW) 10:58:52 145.825 MHz
Oscar 11 31 Jul 11:04:06 11:08:28 87° 103° (ESE) 11:12:49 145.825 FM, Beacon 2401.500 USB
FUNcube-1 31 Jul 11:32:32 11:36:42 64° 101° (E) 11:40:55 145.950 - 145.970 MHz USB
RS-15 31 Jul 11:50:15 11:58:01 22° 101° (ESE) 12:05:37 29.354 - 29.394 USB, Beacon 29.352 USB
UKube-1 31 Jul 11:59:38 12:01:44 13° 296° (WNW) 12:03:49 145.840 MHz, 145.915 MHz
SO-50 31 Jul 12:05:04 12:09:23 52° 117° (ESE) 12:13:47 436.795 FM
HO-68 31 Jul 12:11:11 12:16:13 21° 302° (WNW) 12:21:14 435.675 MHz FM
JAS-1B 31 Jul 12:59:57 13:05:26 17° 50° (NE) 13:11:06 435.800 - 435.900 CW/SSB
AO-Echo 31 Jul 13:03:10 13:04:54 12° 60° (ENE) 13:06:38 ?
Oscar 19 31 Jul 13:04:37 13:08:41 25° 66° (ENE) 13:12:46 437.125 CW, 437.150 USB
FUNcube-1 31 Jul 13:11:51 13:12:34 10° 296° (WNW) 13:13:18 145.950 - 145.970 MHz USB
Oscar 16 31 Jul 13:32:29 13:37:21 47° 71° (ENE) 13:42:16 437.025 USB, Beacon 2401.1428
SO-50 31 Jul 13:47:06 13:50:15 19° 315° (NW) 13:53:28 436.795 FM
UOSAT-12 31 Jul 13:51:23 13:55:44 45° 116° (ESE) 14:00:12 437.025 FM, 437.400 FM
KITSAT 1 31 Jul 13:52:28 13:58:51 25° 42° (NE) 14:05:11 435.175 FM
RS-15 31 Jul 13:57:45 14:08:57 86° 300° (WNW) 14:19:56 29.354 - 29.394 USB, Beacon 29.352 USB
ITAMSAT 1 31 Jul 13:59:01 14:03:47 38° 69° (ENE) 14:08:33 435.822 SSB
Uribyol 2 31 Jul 14:17:23 14:22:29 60° 73° (ENE) 14:27:35 436.500 FM
AO-27 31 Jul 14:18:32 14:23:39 59° 73° (ENE) 14:28:47 436.795 MHz FM
TMSAT-1 31 Jul 14:31:10 14:35:13 23° 66° (ENE) 14:39:17 436.925 FM
AO-Echo 31 Jul 14:37:33 14:42:52 90° 272° (W) 14:48:13 ?
Oscar 19 31 Jul 14:43:06 14:47:48 37° 262° (W) 14:52:32 437.125 CW, 437.150 USB
JAS-1B 31 Jul 14:45:07 14:54:00 69° 71° (ENE) 15:03:49 435.800 - 435.900 CW/SSB
Gurwin Techsat 1B 31 Jul 14:55:59 15:01:08 53° 72° (ENE) 15:06:18 435.225 FM
Oscar 16 31 Jul 15:13:25 15:16:56 19° 267° (W) 15:20:29 437.025 USB, Beacon 2401.1428
Saudisat 1A 31 Jul 15:19:37 15:22:52 20° 47° (NE) 15:26:06 436.775 MHz
UOSAT-12 31 Jul 15:32:31 15:36:06 22° 313° (NW) 15:39:45 437.025 FM, 437.400 FM
AO-7 31 Jul 15:36:37 15:44:01 37° 61° (ENE) 15:51:25 29.400 - 29.500 MHz
ITAMSAT 1 31 Jul 15:39:08 15:43:20 25° 265° (W) 15:47:33 435.822 SSB
KITSAT 1 31 Jul 15:47:06 15:55:13 84° 243° (WSW) 16:03:15 435.175 FM
Uribyol 2 31 Jul 15:59:24 16:02:19 15° 268° (W) 16:05:15 436.500 FM
AO-27 31 Jul 16:00:30 16:03:31 15° 268° (W) 16:06:33 436.795 MHz FM
OPAL 31 Jul 16:04:17 16:05:52 11° 92° (E) 16:07:27 ?
TMSAT-1 31 Jul 16:09:50 16:14:50 43° 261° (W) 16:19:53 436.925 FM
RS-15 31 Jul 16:14:04 16:23:02 28° 326° (NNW) 16:32:00 29.354 - 29.394 USB, Beacon 29.352 USB
Uosat F 31 Jul 16:37:16 16:42:18 81° 75° (ENE) 16:47:22 435.120 FM
JAS-1B 31 Jul 16:37:38 16:45:05 29° 270° (W) 16:53:14 435.800 - 435.900 CW/SSB
Gurwin Techsat 1B 31 Jul 16:37:55 16:41:24 18° 268° (W) 16:44:54 435.225 FM
Saudisat 1A 31 Jul 16:58:28 17:02:41 46° 244° (WSW) 17:06:52 436.775 MHz
JAS-2 31 Jul 17:08:24 17:13:35 20° 61° (ENE) 17:18:31 435.800 - 435.900 CW/SSB, 435.910 FM
Hamsat 31 Jul 17:14:55 17:16:30 12° 64° (ENE) 17:18:06 145.90 MHz
AO-7 31 Jul 17:28:30 17:36:31 50° 259° (WSW) 17:44:35 29.400 - 29.500 MHz
OPAL 31 Jul 17:40:08 17:45:14 77° 287° (WNW) 17:50:22 ?
KITSAT 1 31 Jul 17:45:20 17:49:22 15° 260° (W) 17:53:24 435.175 FM
Uosat F 31 Jul 18:21:09 18:21:38 10° 270° (W) 18:22:08 435.120 FM
RS-15 31 Jul 18:34:45 18:40:53 16° 2° (N) 18:47:04 29.354 - 29.394 USB, Beacon 29.352 USB
Hamsat 31 Jul 18:47:53 18:51:58 55° 260° (W) 18:56:06 145.90 MHz
JAS-2 31 Jul 18:50:03 18:57:53 82° 257° (WSW) 19:05:10 435.800 - 435.900 CW/SSB, 435.910 FM
SO-67 31 Jul 18:53:58 18:56:31 20° 70° (ENE) 18:59:05 435.3500 MHz FM
STRAND 1 31 Jul 20:08:03 20:13:11 88° 104° (ESE) 20:18:16 ?
MaSat-1 31 Jul 20:22:58 20:26:23 27° 104° (ESE) 20:30:15 437.345 MHz
SO-67 31 Jul 20:26:50 20:29:28 20° 265° (W) 20:32:08 435.3500 MHz FM
SO-50 31 Jul 20:37:58 20:42:19 34° 52° (NE) 20:46:43 436.795 FM
JAS-2 31 Jul 20:39:53 20:43:35 14° 271° (W) 20:47:13 435.800 - 435.900 CW/SSB, 435.910 FM
HO-68 31 Jul 20:48:54 20:55:42 48° 67° (ENE) 21:02:29 435.675 MHz FM
RS-15 31 Jul 20:48:57 20:58:25 31° 37° (NE) 21:08:04 29.354 - 29.394 USB, Beacon 29.352 USB
UKube-1 31 Jul 21:15:54 21:19:58 39° 71° (ENE) 21:24:02 145.840 MHz, 145.915 MHz
STRAND 1 31 Jul 21:50:20 21:51:35 11° 300° (WNW) 21:52:51 ?
Oscar 11 31 Jul 21:57:38 22:01:50 56° 74° (ENE) 22:06:03 145.825 FM, Beacon 2401.500 USB
MaSat-1 31 Jul 21:59:57 22:03:35 27° 305° (NW) 22:07:40 437.345 MHz
ISS 31 Jul 22:03:49 22:06:36 25° 132° (SE) 22:09:24 145.800 FM
SO-50 31 Jul 22:18:44 22:22:46 27° 248° (WSW) 22:26:49 436.795 FM
UOSAT-12 31 Jul 22:22:28 22:26:36 29° 50° (NE) 22:30:40 437.025 FM, 437.400 FM
FUNcube-1 31 Jul 22:27:43 22:31:46 42° 73° (ENE) 22:35:46 145.950 - 145.970 MHz USB
HO-68 31 Jul 22:37:23 22:43:32 31° 264° (W) 22:49:44 435.675 MHz FM
UKube-1 31 Jul 22:53:28 22:56:18 17° 266° (W) 22:59:10 145.840 MHz, 145.915 MHz
RS-15 31 Jul 23:01:01 23:12:07 84° 242° (WSW) 23:23:40 29.354 - 29.394 USB, Beacon 29.352 USB
Sapphire 31 Jul 23:15:18 23:18:08 15° 103° (ESE) 23:20:57 437.095 MHz 1200 baud AX-25 AFSK
Oscar 11 31 Jul 23:36:59 23:38:21 11° 269° (W) 23:39:43 145.825 FM, Beacon 2401.500 USB
ISS 31 Jul 23:40:09 23:43:13 33° 328° (NNW) 23:46:18 145.800 FM
PCSat 31 Jul 23:46:10 23:50:52 31° 109° (ESE) 23:55:36 145.825 MHz
UOSAT-12 01 Aug 00:02:32 00:06:44 32° 247° (WSW) 00:10:52 437.025 FM, 437.400 FM
FUNcube-1 01 Aug 00:05:58 00:08:21 15° 267° (W) 00:10:43 145.950 - 145.970 MHz USB
Sapphire 01 Aug 00:55:31 01:00:54 69° 299° (WNW) 01:06:19 437.095 MHz 1200 baud AX-25 AFSK
RS-15 01 Aug 01:16:04 01:22:50 19° 260° (W) 01:29:46 29.354 - 29.394 USB, Beacon 29.352 USB
ISS 01 Aug 01:19:49 01:20:44 11° 348° (NNW) 01:21:40 145.800 FM
PCSat 01 Aug 01:29:17 01:34:11 35° 306° (NW) 01:39:07 145.825 MHz
Oscar 16 01 Aug 01:46:31 01:50:07 19° 93° (E) 01:53:43 437.025 USB, Beacon 2401.1428
ITAMSAT 1 01 Aug 02:14:46 02:17:33 15° 91° (E) 02:20:19 435.822 SSB
Uribyol 2 01 Aug 02:32:18 02:36:24 24° 95° (E) 02:40:29 436.500 FM
AO-27 01 Aug 02:33:47 02:37:53 23° 95° (E) 02:41:57 436.795 MHz FM
JAS-1B 01 Aug 02:35:30 02:42:15 24° 87° (E) 02:48:13 435.800 - 435.900 CW/SSB
Sapphire 01 Aug 02:43:29 02:45:20 12° 319° (NW) 02:47:12 437.095 MHz 1200 baud AX-25 AFSK
AO-Echo 01 Aug 02:47:08 02:51:36 32° 96° (E) 02:55:54 ?
Oscar 19 01 Aug 02:55:33 03:00:46 86° 104° (ESE) 03:05:57 437.125 CW, 437.150 USB
Gurwin Techsat 1B 01 Aug 03:14:18 03:18:33 24° 94° (E) 03:22:45 435.225 FM
OPAL 01 Aug 03:17:03 03:20:25 19° 62° (ENE) 03:23:49 ?
Oscar 16 01 Aug 03:24:44 03:29:41 48° 288° (WNW) 03:34:38 437.025 USB, Beacon 2401.1428
ITAMSAT 1 01 Aug 03:52:20 03:57:26 61° 287° (WNW) 04:02:30 435.822 SSB
Uribyol 2 01 Aug 04:11:12 04:15:57 38° 290° (WNW) 04:20:41 436.500 FM
AO-27 01 Aug 04:12:42 04:17:29 39° 290° (WNW) 04:22:14 436.795 MHz FM
KITSAT 1 01 Aug 04:22:42 04:26:55 15° 100° (E) 04:31:07 435.175 FM
JAS-1B 01 Aug 04:24:33 04:33:42 72° 289° (WNW) 04:41:23 435.800 - 435.900 CW/SSB
AO-Echo 01 Aug 04:26:05 04:30:13 26° 293° (WNW) 04:34:13 ?
TMSAT-1 01 Aug 04:26:47 04:32:06 85° 103° (ESE) 04:37:23 436.925 FM
ISS 01 Aug 04:33:33 04:36:24 25° 28° (NNE) 04:39:15 145.800 FM
PANSAT 01 Aug 04:35:51 04:38:24 17° 173° (S) 04:40:58 not established
Oscar 19 01 Aug 04:37:42 04:39:20 12° 300° (WNW) 04:40:59 437.125 CW, 437.150 USB
Uosat F 01 Aug 04:47:02 04:51:17 27° 96° (E) 04:55:30 435.120 FM
Gurwin Techsat 1B 01 Aug 04:53:41 04:58:36 40° 290° (WNW) 05:03:30 435.225 FM
OPAL 01 Aug 04:54:09 04:58:55 49° 258° (WSW) 05:03:44 ?
AO-7 01 Aug 05:31:16 05:39:32 64° 104° (ESE) 05:47:43 29.400 - 29.500 MHz
STRAND 1 01 Aug 05:46:46 05:49:07 13° 61° (ENE) 05:51:29 ?
JAS-2 01 Aug 06:06:02 06:07:29 11° 87° (E) 06:08:54 435.800 - 435.900 CW/SSB, 435.910 FM
TMSAT-1 01 Aug 06:09:20 06:11:15 12° 300° (WNW) 06:13:10 436.925 FM
ISS 01 Aug 06:10:02 06:13:12 39° 225° (SW) 06:16:21 145.800 FM
KITSAT 1 01 Aug 06:13:00 06:21:06 85° 117° (ESE) 06:29:14 435.175 FM
PANSAT 01 Aug 06:15:24 06:17:59 17° 186° (S) 06:20:33 not established
JAS-1B 01 Aug 06:17:18 06:22:18 16° 310° (NW) 06:26:59 435.800 - 435.900 CW/SSB
MaSat-1 01 Aug 06:18:45 06:23:55 53° 62° (ENE) 06:28:44 437.345 MHz
Uosat F 01 Aug 06:25:38 06:30:02 32° 292° (WNW) 06:34:25 435.120 FM
Hamsat 01 Aug 06:35:15 06:38:59 28° 96° (E) 06:42:44 145.90 MHz
